Location: Asheville, NC
(35.6000°N, 82.5500°W)
Time: 03:26:22
(UTC-04:00)

Envisat - Visible Passes

Search period start: 21 April 2018 00:00
Search period end: 01 May 2018 00:00
Orbit: 764 x 766 km, 98.2° (Epoch: 20 April)

Date Brightness Start Highest point End Pass type
(mag) Time Alt. Az. Time Alt. Az. Time Alt. Az.
21 Apr 4.8 21:44:56 10° SSW 21:49:18 29° W 21:53:42 10° NW visible
22 Apr 3.3 21:07:26 10° S 21:12:28 70° W 21:17:33 10° NNW visible
23 Apr 3.3 20:30:57 10° SSE 20:35:49 50° ENE 20:40:42 10° N visible
23 Apr 5.6 22:12:02 10° SW 22:15:04 16° W 22:18:07 10° NW visible
24 Apr 4.4 21:33:26 10° SSW 21:38:06 37° W 21:42:48 10° NNW visible
25 Apr 3.0 20:56:16 10° SSE 21:01:19 89° WSW 21:06:25 10° NNW visible
26 Apr 5.3 22:00:06 10° SW 22:03:50 20° W 22:07:34 10° NW visible
27 Apr 3.9 21:22:02 10° S 21:26:55 48° W 21:31:50 10° NNW visible
28 Apr 3.0 20:45:10 10° SSE 20:50:12 71° ENE 20:55:15 10° N visible
28 Apr 5.9 22:28:36 10° WSW 22:29:39 11° W 22:30:42 10° WNW visible
29 Apr 5.0 21:48:24 10° SSW 21:52:36 26° W 21:56:51 10° NW visible
30 Apr 3.5 21:10:45 10° S 21:15:45 63° W 21:20:48 10° NNW visible
